Simultaneous Nadir Overpasses (SNOs) Predictions

Prediction of SNOs between GOES-16 and NPP Satellite Orbit:

Table of predicted SNOs for the next 14.0 days since TLE Epoch: 8/7/2020
Index Date Time (GOES-16) GOES-16 Lat,Lon NPP Lat,Lon Distance(km) Time Diff (sec)
1 08/08/2020 18:16:45 0.04, -75.22 0.60, -72.68 289.82 80
2 08/10/2020 06:35:54 -0.05, -75.23 0.58, -77.95 310.20 80
3 08/11/2020 06:19:50 -0.04, -75.24 -0.47, -73.43 207.16 80
4 08/12/2020 18:39:08 0.05, -75.26 -0.71, -78.73 395.44 80
5 08/13/2020 18:23:03 0.05, -75.27 0.28, -74.20 122.12 80
6 08/15/2020 06:44:51 -0.06, -75.29 0.89, -79.47 477.27 80
7 08/16/2020 06:26:08 -0.06, -75.30 -0.16, -74.95 40.38 80
8 08/18/2020 18:26:41 0.07, -75.34 -0.02, -75.72 44.05 80
9 08/19/2020 18:10:36 0.07, -75.35 0.98, -71.19 474.11 80
10 08/21/2020 06:29:45 -0.07, -75.38 0.20, -76.46 124.11 80
